Temp
82 82 82 81 81 80 79 77 78 78 76 77 77 76 75 73 73 71 69 69 69 69 69 68 68 69 68 69 68 69 66 65 62 64 66 68 69 70 73 71 71 69 69
83 82 81 81 81 80 81 79 79 79 75 77 77 75 75 75 73 72 70 72 69 68 68 67 68 71 67 67 67 67 66 65 63 61 63 65 66 67 67 68 70 73 69
83 82 81 81 80 80 80 81 80 80 77 77 77 76 75 74 73 72 72 69 69 69 68 67 69 70 66 66 67 68 67 66 64 63 62 64 65 65 67 66 65 66 70
83 82 81 81 81 81 81 81 78 80 79 76 77 76 75 75 73 73 71 68 68 69 69 69 69 71 68 66 66 65 65 65 64 62 61 62 63 65 63 62 62 62 64
83 82 82 82 82 81 81 80 81 78 79 77 75 75 74 74 74 72 72 69 68 68 69 70 71 71 72 69 66 65 65 63 62 61 60 61 61 60 60 60 59 60 61
84 83 83 82 81 80 80 80 79 80 78 76 74 73 73 76 70 69 72 70 68 68 67 68 72 73 71 70 69 68 67 64 62 60 60 60 60 60 60 59 58 56 55
85 84 83 82 81 80 80 79 78 78 77 76 74 73 72 74 67 67 69 69 68 67 67 71 69 75 70 67 65 66 66 65 66 62 60 60 60 61 60 59 58 57 56
84 83 83 82 81 80 80 79 79 79 79 76 74 74 74 73 65 65 68 69 67 68 70 70 69 68 66 66 65 65 65 65 63 63 61 63 62 63 62 60 59 57 56
83 83 83 82 81 80 79 79 80 78 74 74 75 75 74 69 62 62 65 67 65 68 69 69 68 66 66 63 65 63 63 64 65 63 63 63 63 64 62 58 57 53 51
85 84 84 83 82 80 80 79 79 77 76 75 73 73 68 70 61 61 64 68 66 67 68 67 65 67 62 60 64 63 61 62 63 62 61 63 62 62 63 60 61 53 52
86 83 83 84 81 81 80 79 77 75 73 74 72 71 71 71 65 58 59 69 69 68 67 65 65 61 57 57 59 63 62 58 60 61 61 61 61 60 64 66 60 56 53
81 82 80 80 81 80 78 75 73 72 72 70 70 69 71 70 63 57 57 60 65 66 65 65 64 56 55 56 57 57 56 58 59 58 55 55 56 59 63 62 59 58 57
80 78 78 77 77 75 73 72 71 70 70 68 68 68 68 68 66 58 56 57 58 62 63 60 55 51 53 54 56 56 58 56 56 54 53 54 56 60 57 58 58 57 56
77 74 73 72 71 71 71 71 69 68 67 68 67 66 66 66 62 59 58 57 57 60 57 56 55 55 55 56 54 54 53 54 55 54 53 55 55 55 55 54 53 53 51
72 71 70 69 64 59 54 58 66 58 65 68 67 67 66 64 62 59 58 60 60 58 56 55 54 54 53 54 54 54 54 57 58 57 54 53 53 53 52 53 51 51 49
69 69 67 65 63 61 60 57 48 47 46 48 54 62 55 53 51 49 50 52 52 51 56 56 55 55 55 55 54 56 60 61 58 58 55 53 52 51 51 51 50 49 48
68 68 68 65 67 65 63 61 57 55 47 44 45 49 51 49 47 46 45 47 50 53 56 57 57 56 57 56 57 60 59 59 60 58 52 51 51 51 51 50 50 49 49
70 62 71 70 68 68 66 63 60 61 59 56 46 47 44 44 45 45 46 52 56 55 56 56 56 56 58 59 56 56 54 57 53 51 51 51 50 50 50 50 49 47 48
71 71 71 72 72 69 70 66 63 62 59 55 50 48 44 44 44 46 47 55 56 56 56 56 56 56 55 54 53 53 52 52 51 51 50 49 50 49 49 50 49 51 50
66 66 68 69 70 72 70 69 67 65 59 57 55 54 50 50 52 53 54 55 56 57 57 56 55 55 54 53 53 52 52 51 51 49 49 49 48 49 49 49 49 49 49
70 68 65 67 66 68 68 67 70 65 62 61 60 57 52 58 56 55 55 55 57 58 56 56 55 55 54 54 53 53 52 51 50 49 48 48 49 49 49 49 50 50 49
67 65 65 63 65 68 69 68 70 69 65 63 61 57 49 56 58 58 57 58 59 59 59 57 56 55 55 53 52 51 50 50 49 48 48 49 49 49 49 49 49 49 49
66 66 66 65 63 61 61 63 64 64 62 61 61 57 56 58 58 59 60 61 59 58 61 61 59 56 54 53 53 51 50 49 48 48 47 47 47 47 47 48 48 48 48
66 65 64 62 61 62 64 63 64 61 63 63 61 60 60 59 60 60 62 61 60 62 61 61 61 57 54 52 51 50 49 48 47 47 47 46 46 46 47 48 48 49 49
66 65 64 62 62 63 64 64 62 61 63 63 61 61 63 61 63 61 64 64 64 63 61 61 59 58 56 54 49 47 41 42 45 44 45 46 46 47 47 47 48 48 49
65 68 66 65 65 65 65 64 62 62 62 63 61 62 60 60 61 63 58 57 58 57 57 56 57 57 56 53 51 42 37 39 42 40 43 43 44 45 46 48 49 49 49
MSLP
1006.05 1006.76 1007.49 1008.09 1008.75 1009.55 1009.99 1010.39 1010.74 1011.22 1011.73 1012.36 1013.04 1013.61 1013.99 1014.41 1014.81 1015.38 1015.94 1016.50 1016.94 1017.13 1017.25 1017.46 1017.66 1017.69 1017.66 1017.69 1017.97 1018.13 1018.56 1018.86 1019.30 1018.93 1018.50 1018.23 1018.05 1017.97 1017.73 1017.59 1017.56 1017.56 1017.46
1004.90 1005.86 1006.48 1007.20 1007.97 1008.68 1009.10 1009.56 1009.98 1010.51 1011.12 1011.63 1012.14 1012.60 1013.24 1013.79 1014.25 1014.95 1015.56 1015.87 1016.33 1016.72 1016.94 1017.27 1017.34 1017.31 1017.39 1017.32 1017.51 1017.80 1018.13 1018.53 1018.98 1019.16 1018.67 1018.41 1018.11 1017.80 1017.69 1017.62 1017.31 1017.14 1017.22
1004.09 1004.86 1005.68 1006.33 1007.08 1007.55 1008.13 1008.68 1009.22 1009.77 1010.28 1010.82 1011.33 1011.73 1012.35 1012.99 1013.73 1014.23 1014.77 1015.45 1015.97 1016.28 1016.53 1016.84 1016.95 1017.09 1017.31 1017.30 1017.27 1017.60 1017.78 1018.02 1018.42 1018.69 1018.63 1018.25 1017.93 1017.73 1017.54 1017.37 1017.24 1016.98 1016.77
1002.80 1003.71 1004.47 1005.18 1005.77 1006.42 1007.15 1007.87 1008.38 1008.84 1009.45 1010.01 1010.46 1011.12 1011.80 1012.44 1013.12 1013.69 1014.34 1014.89 1015.33 1015.76 1016.11 1016.37 1016.49 1016.63 1016.74 1017.16 1017.10 1017.39 1017.75 1017.92 1017.98 1018.25 1018.33 1018.17 1017.99 1017.43 1017.55 1017.59 1017.55 1017.34 1016.95
1001.59 1002.43 1003.04 1003.96 1004.73 1005.68 1006.39 1006.94 1007.54 1008.19 1008.63 1009.30 1010.11 1010.79 1011.37 1011.99 1012.47 1012.97 1013.69 1014.21 1014.88 1015.33 1015.49 1015.73 1015.91 1016.02 1016.16 1016.37 1016.66 1016.82 1017.30 1017.56 1017.62 1017.91 1018.11 1017.96 1017.78 1017.62 1017.67 1017.56 1017.54 1017.40 1017.02
1000.26 1000.83 1001.99 1003.08 1003.98 1004.68 1005.44 1006.10 1006.83 1007.49 1008.14 1008.86 1009.49 1010.17 1010.88 1011.36 1011.82 1012.61 1013.25 1013.92 1014.49 1015.01 1015.34 1015.27 1015.35 1015.49 1015.62 1015.84 1015.97 1015.99 1016.33 1016.74 1017.02 1017.50 1017.62 1017.67 1017.39 1017.29 1017.30 1017.19 1017.10 1017.17 1016.97
999.12 1000.05 1000.89 1001.89 1002.80 1003.62 1004.57 1005.41 1006.07 1006.79 1007.63 1008.22 1008.98 1009.67 1010.32 1010.78 1011.44 1012.28 1012.82 1013.27 1013.73 1014.47 1014.74 1014.87 1014.90 1015.00 1015.09 1015.60 1015.98 1015.97 1016.15 1016.06 1016.16 1016.61 1016.98 1016.96 1017.02 1016.73 1016.76 1016.82 1016.89 1016.98 1016.74
998.14 999.06 999.91 1000.70 1001.62 1002.75 1003.73 1004.53 1005.46 1006.24 1006.88 1007.68 1008.48 1009.14 1009.84 1010.47 1011.18 1011.55 1012.15 1012.90 1013.50 1013.85 1014.15 1014.39 1014.43 1014.66 1015.09 1015.43 1015.67 1015.89 1015.93 1015.77 1015.80 1016.07 1016.23 1016.04 1015.98 1015.87 1016.10 1016.09 1016.16 1016.25 1016.11
997.19 997.94 998.68 999.61 1000.69 1001.80 1002.72 1003.72 1004.67 1005.59 1006.47 1007.17 1007.86 1008.61 1009.36 1010.31 1010.87 1011.56 1012.23 1012.76 1013.16 1013.42 1013.59 1013.92 1014.08 1014.44 1014.76 1015.05 1015.39 1015.80 1015.79 1015.21 1014.88 1014.97 1014.98 1015.17 1015.28 1015.23 1015.31 1015.74 1015.97 1016.39 1016.15
996.21 996.74 997.67 998.78 999.84 1000.84 1002.00 1003.13 1003.94 1004.85 1005.74 1006.54 1007.39 1008.00 1008.75 1009.78 1010.44 1011.12 1011.82 1012.25 1012.72 1012.96 1012.99 1013.13 1013.46 1013.71 1014.11 1014.61 1014.96 1015.22 1015.35 1015.04 1014.96 1014.91 1015.27 1015.05 1014.84 1014.81 1014.57 1014.96 1015.09 1016.00 1015.78
995.19 996.38 997.33 998.24 999.27 1000.40 1001.61 1002.69 1003.54 1004.55 1005.53 1006.40 1007.19 1008.18 1008.66 1009.16 1010.07 1010.68 1011.59 1012.05 1012.27 1012.64 1012.82 1012.80 1012.82 1013.05 1013.53 1013.95 1014.33 1014.60 1014.84 1015.03 1014.97 1015.05 1014.99 1014.99 1014.93 1014.69 1014.26 1013.94 1014.39 1015.03 1015.00
995.08 996.25 997.26 998.23 999.28 1000.30 1001.33 1002.57 1003.70 1004.63 1005.57 1006.44 1007.39 1007.65 1008.40 1009.09 1009.69 1010.53 1011.11 1011.50 1011.89 1012.30 1012.51 1012.35 1012.49 1012.53 1013.16 1013.64 1013.89 1014.14 1014.44 1014.72 1014.81 1014.97 1014.88 1014.93 1015.28 1014.70 1014.37 1014.28 1014.14 1013.99 1013.89
995.34 996.57 997.52 998.54 999.51 1000.49 1001.58 1002.74 1004.13 1004.95 1005.83 1006.95 1007.43 1008.36 1008.52 1009.01 1009.54 1010.05 1010.57 1010.99 1011.54 1012.24 1012.35 1012.50 1012.67 1012.88 1013.28 1013.74 1014.01 1014.07 1014.36 1014.66 1014.77 1014.85 1014.88 1015.07 1014.82 1014.45 1014.33 1014.06 1013.68 1013.48 1013.42
995.88 997.04 998.19 999.06 1000.18 1001.30 1002.61 1003.54 1004.56 1005.32 1006.13 1006.84 1007.40 1008.10 1008.43 1008.96 1009.64 1010.28 1010.86 1011.34 1011.90 1012.36 1012.46 1012.63 1013.02 1013.33 1013.39 1013.78 1014.04 1014.13 1014.21 1014.20 1014.29 1014.42 1014.62 1014.64 1014.41 1014.30 1014.24 1014.08 1014.17 1013.91 1013.94
996.94 997.97 999.08 1000.18 1001.30 1002.75 1003.72 1004.78 1005.32 1005.98 1005.99 1006.69 1007.28 1007.58 1008.62 1008.88 1009.49 1010.08 1010.45 1010.95 1011.61 1012.02 1012.57 1013.12 1013.70 1014.02 1014.33 1013.98 1013.85 1013.91 1013.75 1013.70 1013.96 1014.13 1014.41 1014.51 1014.49 1014.31 1014.29 1013.96 1013.97 1013.95 1013.96
997.72 998.98 999.93 1000.78 1002.01 1003.14 1004.41 1005.51 1006.11 1006.77 1006.86 1006.85 1007.32 1007.63 1008.94 1008.22 1009.05 1009.98 1010.20 1010.78 1011.35 1011.90 1012.50 1012.88 1013.16 1013.37 1013.62 1013.51 1013.42 1013.38 1013.28 1013.26 1013.52 1013.84 1014.03 1014.26 1014.34 1014.29 1014.26 1014.04 1013.83 1013.78 1013.76
998.15 999.27 1000.41 1000.94 1001.73 1002.93 1004.23 1005.21 1006.18 1007.17 1007.30 1007.25 1007.25 1008.60 1008.32 1009.04 1009.23 1009.94 1010.29 1010.81 1011.27 1011.74 1012.18 1012.24 1012.40 1012.54 1012.60 1012.67 1012.79 1012.95 1012.95 1013.08 1013.32 1013.74 1014.02 1014.21 1014.15 1014.03 1014.04 1013.97 1013.76 1013.59 1013.34
998.43 999.34 1000.70 1000.67 1002.24 1002.72 1003.94 1005.26 1006.01 1006.50 1007.56 1007.92 1008.52 1008.61 1009.31 1009.80 1009.96 1010.28 1010.55 1011.02 1011.57 1011.79 1011.91 1011.87 1011.85 1011.96 1012.08 1012.53 1012.85 1013.15 1013.41 1013.41 1013.73 1014.01 1014.02 1013.91 1013.95 1014.05 1014.04 1013.87 1013.67 1013.58 1013.15
999.15 999.72 1001.04 1001.37 1001.77 1002.09 1003.34 1004.68 1005.32 1007.43 1007.72 1007.45 1009.00 1009.37 1009.92 1010.46 1010.42 1010.67 1010.67 1010.99 1011.32 1011.53 1011.54 1011.90 1011.75 1012.17 1012.43 1012.70 1013.02 1013.18 1013.31 1013.51 1013.58 1013.68 1013.70 1013.89 1013.94 1014.06 1013.86 1013.68 1013.50 1013.09 1012.73
999.64 1000.25 1000.90 1001.61 1002.01 1001.89 1003.15 1004.15 1005.32 1006.53 1007.06 1007.21 1008.68 1009.14 1010.00 1010.40 1010.68 1010.77 1010.68 1010.56 1010.67 1011.21 1011.34 1011.80 1011.69 1011.77 1012.24 1012.57 1012.86 1013.07 1013.24 1013.34 1013.48 1013.66 1013.74 1013.94 1013.92 1013.77 1013.83 1013.66 1013.35 1013.08 1012.63
1000.00 1000.18 1000.83 1001.09 1001.79 1002.53 1003.19 1003.95 1005.25 1005.85 1006.33 1007.00 1007.61 1008.40 1008.79 1009.34 1009.79 1010.02 1010.05 1010.31 1010.25 1010.67 1010.76 1011.05 1011.45 1011.60 1011.95 1012.22 1012.54 1012.83 1013.09 1013.34 1013.43 1013.58 1013.73 1013.69 1013.68 1013.90 1013.67 1013.43 1013.19 1012.80 1012.44
1000.56 1000.50 1001.63 1002.22 1002.77 1002.76 1003.09 1003.49 1004.37 1004.97 1005.63 1006.25 1007.08 1008.13 1008.65 1009.13 1009.30 1009.47 1009.60 1009.64 1009.74 1009.78 1010.14 1010.29 1010.92 1011.42 1011.86 1012.26 1012.61 1012.94 1013.20 1013.33 1013.48 1013.53 1013.59 1013.62 1013.71 1013.78 1013.57 1013.39 1013.11 1012.74 1012.28
1001.03 1001.57 1002.03 1002.41 1002.90 1003.75 1003.91 1003.78 1004.01 1004.72 1005.25 1006.03 1006.87 1007.61 1008.43 1008.54 1008.76 1008.69 1008.83 1008.92 1009.34 1009.70 1009.88 1010.11 1010.20 1010.86 1011.43 1011.77 1012.02 1012.43 1012.86 1013.21 1013.41 1013.41 1013.63 1013.75 1013.84 1013.84 1013.62 1013.35 1013.06 1012.64 1012.18
1001.39 1002.18 1002.76 1003.06 1003.59 1003.87 1003.96 1004.07 1004.19 1004.64 1005.02 1005.65 1006.28 1006.75 1007.37 1007.71 1007.78 1008.04 1008.25 1008.41 1008.92 1009.09 1009.35 1009.63 1009.82 1010.30 1011.00 1011.48 1011.82 1012.05 1012.44 1012.81 1013.05 1013.26 1013.46 1013.69 1013.78 1013.61 1013.50 1013.23 1012.87 1012.53 1012.07
1002.64 1002.35 1002.69 1003.04 1003.22 1003.64 1003.96 1004.81 1004.50 1004.64 1004.90 1005.35 1005.87 1006.25 1006.65 1006.96 1007.25 1007.38 1007.78 1007.86 1008.16 1008.70 1008.83 1009.01 1009.30 1009.74 1010.27 1010.97 1011.61 1012.07 1012.33 1012.49 1012.87 1013.12 1013.36 1013.47 1013.59 1013.56 1013.34 1013.01 1012.67 1012.43 1012.01
1002.38 1002.41 1002.75 1002.88 1003.18 1003.57 1003.79 1004.08 1004.40 1004.54 1004.64 1005.03 1005.42 1005.76 1006.02 1006.34 1006.79 1006.55 1007.13 1007.40 1007.84 1008.13 1008.46 1008.87 1009.17 1009.61 1009.92 1010.58 1011.13 1011.69 1012.14 1012.41 1012.74 1012.94 1013.18 1013.44 1013.48 1013.38 1013.19 1012.73 1012.44 1012.37 1011.99
Wind_Speed
21 19 17 16 15 13 11 8 10 8 9 13 13 13 12 12 11 10 8 7 7 7 5 6 6 5 3 3 2 2 1 2 2 4 2 3 2 4 5 4 5 5 5
21 19 19 16 15 15 15 12 11 11 9 14 15 14 14 13 12 12 10 8 8 8 7 6 7 4 6 5 4 5 4 3 3 4 3 2 3 4 5 4 5 3 5
20 20 18 17 17 17 17 15 13 13 11 15 15 16 15 14 12 12 11 8 6 8 7 7 7 6 6 4 3 4 3 2 2 2 3 2 3 2 5 4 4 3 3
21 20 20 19 19 18 16 17 11 14 15 13 15 15 14 13 12 12 10 8 7 7 7 7 7 8 7 7 6 6 3 3 3 3 3 4 4 5 2 1 4 2 3
22 21 21 19 18 16 16 16 17 11 13 12 11 11 10 11 10 12 11 9 8 7 7 7 9 9 11 10 5 6 6 4 3 3 4 2 3 2 2 2 3 3 3
22 23 20 18 17 17 16 15 14 15 11 11 12 10 10 9 13 15 12 9 7 7 7 7 7 11 9 12 13 10 9 6 5 3 4 5 5 3 2 2 2 2 4
21 20 20 19 18 18 15 14 14 15 10 12 10 10 10 11 13 16 14 7 8 7 7 8 6 6 8 5 10 9 8 10 9 5 5 5 5 5 4 3 4 4 5
21 20 19 19 19 17 16 15 13 12 14 11 10 10 10 8 14 15 16 7 6 7 8 9 8 6 5 5 5 6 7 6 6 5 6 8 7 7 6 6 6 4 3
20 21 20 20 18 17 18 15 13 11 7 10 9 11 9 6 12 10 10 6 6 6 5 6 6 6 8 7 5 5 7 6 6 11 12 10 10 10 7 2 4 2 4
20 20 18 18 18 17 17 15 11 10 11 10 9 10 11 9 13 14 10 5 5 5 5 7 13 10 8 7 7 6 6 4 2 2 1 3 5 7 11 7 5 4 3
15 12 14 16 16 16 15 12 12 10 9 8 9 6 9 10 10 14 13 7 6 5 7 5 5 10 11 10 9 6 4 4 1 2 3 4 5 5 5 3 5 5 4
11 13 12 14 12 12 15 10 11 10 10 8 8 7 6 6 10 13 16 13 6 5 4 4 3 9 7 9 7 8 8 3 2 3 2 3 4 3 2 3 5 5 5
14 13 13 12 12 11 13 12 9 9 9 7 6 5 5 5 4 14 17 16 9 2 3 3 4 7 8 5 7 9 7 3 2 1 2 3 3 3 4 4 5 5 4
14 13 11 13 13 11 8 8 9 7 7 7 6 5 4 4 5 4 3 4 3 3 6 4 4 4 4 4 3 4 4 4 4 3 2 3 2 2 3 1 2 2 2
15 14 14 11 12 9 10 5 6 5 5 7 5 5 6 5 4 8 8 6 5 5 5 3 2 2 3 3 3 5 4 4 4 3 2 1 1 2 2 2 2 3 2
14 10 10 10 9 8 9 9 18 11 10 9 6 7 1 4 15 11 13 12 11 12 3 3 4 5 5 5 5 5 4 6 3 2 3 2 2 2 2 3 2 2 3
14 12 9 10 10 10 9 9 10 6 15 16 14 8 6 11 14 12 12 10 9 10 3 4 4 5 5 5 5 4 2 3 3 1 2 1 1 2 3 3 3 3 4
12 13 8 10 9 9 8 7 7 9 6 4 10 9 10 11 11 11 11 9 3 1 3 3 3 2 2 3 3 3 3 4 3 2 0 2 3 2 2 3 4 3 4
9 9 6 8 10 10 10 9 7 5 5 7 4 6 6 7 9 8 7 3 3 3 3 1 4 5 5 5 5 4 4 3 2 0 2 2 4 1 2 4 5 7 7
7 11 8 4 4 9 8 8 8 7 7 8 6 6 6 5 4 5 4 4 3 2 5 5 4 5 5 5 4 3 2 2 2 2 3 1 1 2 3 5 5 4 5
5 7 8 6 5 5 5 6 11 9 8 9 8 8 12 7 6 5 5 5 5 5 5 6 5 5 4 4 4 3 1 2 3 2 3 3 3 3 4 4 4 6 5
4 6 4 3 2 4 5 5 9 9 8 8 6 8 17 4 5 6 5 6 5 6 5 7 5 5 5 5 5 4 2 3 3 3 4 3 3 4 4 4 5 5 4
6 6 5 6 5 4 4 3 6 6 6 5 6 8 7 6 4 5 6 5 5 5 5 5 6 6 5 5 5 5 4 4 4 4 4 3 3 4 4 4 5 4 4
6 5 5 5 5 4 2 4 5 6 7 7 8 8 8 6 5 5 5 5 5 5 5 5 6 8 7 6 4 4 5 5 5 5 5 2 3 5 5 5 4 6 5
2 5 5 4 5 3 5 5 4 5 5 6 5 6 7 5 4 6 7 8 9 9 9 7 6 11 11 10 9 9 8 11 7 5 2 1 3 6 6 4 4 5 5
5 5 4 4 4 4 5 5 4 6 6 6 5 6 5 5 6 7 5 6 5 5 6 5 7 10 12 11 12 13 9 10 8 7 3 0 2 5 5 5 7 5 6
Wind_Direction
185 188 192 195 196 197 198 192 188 190 165 174 177 178 183 179 180 178 180 188 192 203 198 190 214 211 194 170 137 75 96 117 174 303 228 250 214 232 265 247 243 243 248
185 186 194 194 193 197 206 198 191 196 171 177 180 182 187 190 181 181 185 192 193 200 202 193 211 204 208 205 182 184 172 183 159 250 278 290 255 251 236 228 245 250 257
183 187 191 194 195 200 203 203 195 195 188 185 184 189 187 190 183 186 188 189 191 200 195 201 212 202 216 223 198 211 202 170 173 207 260 259 274 276 279 264 253 277 264
183 188 192 194 198 201 200 203 192 194 193 185 192 191 192 187 181 185 182 181 190 200 203 208 206 210 203 210 200 204 210 219 220 220 243 248 240 269 217 210 309 298 299
183 189 195 195 197 199 203 200 205 195 196 189 178 187 183 181 181 182 189 186 184 201 206 205 210 207 207 201 194 199 195 233 236 228 250 257 247 258 223 227 222 252 273
186 193 190 192 193 197 201 200 195 202 195 179 183 175 179 189 183 174 185 184 178 194 215 220 213 218 217 215 203 187 189 202 228 196 236 236 258 232 229 261 264 332 304
193 190 191 189 193 197 194 192 192 195 184 185 176 170 182 193 174 173 179 181 177 193 204 219 218 225 214 217 234 234 252 226 205 190 231 229 240 229 202 241 244 219 229
191 193 190 190 193 189 189 189 185 186 193 177 172 178 182 188 168 187 192 186 178 193 208 214 209 218 238 231 212 223 240 250 219 210 209 248 234 239 210 211 223 240 283
188 192 191 189 187 186 188 181 182 175 157 172 167 179 183 145 162 161 165 175 186 217 221 225 215 222 228 229 232 265 279 273 230 214 212 242 260 250 237 143 262 243 274
195 194 185 183 183 181 174 173 168 159 164 161 162 167 158 158 177 178 170 163 193 214 236 227 221 201 218 231 200 215 245 253 306 77 300 257 252 258 255 205 253 229 246
188 168 170 175 170 165 162 162 155 155 148 152 144 147 164 164 177 174 179 191 206 207 221 220 225 197 178 186 211 195 195 139 216 244 261 292 295 277 274 261 197 190 222
133 146 144 147 150 150 146 141 134 135 141 138 138 145 161 168 156 185 191 206 192 206 220 214 201 175 188 203 178 161 157 157 218 290 339 307 287 304 240 232 238 240 237
122 124 126 121 125 130 129 127 114 114 121 124 136 164 163 174 154 180 199 201 188 166 151 169 123 135 145 147 183 177 177 197 207 204 267 252 236 269 287 322 326 337 319
113 106 109 111 105 103 111 112 125 126 125 138 150 175 175 154 143 144 162 178 189 165 111 119 168 169 146 175 174 210 210 211 205 221 234 253 304 344 340 316 299 292 307
103 102 102 95 98 90 66 56 100 55 124 151 178 158 161 164 173 160 155 155 157 160 134 98 112 154 208 217 220 216 217 216 223 225 254 253 276 337 310 293 268 295 277
118 114 119 117 108 113 106 81 52 59 47 71 79 125 53 119 138 144 143 148 159 147 119 166 191 203 210 213 205 219 214 220 201 224 176 204 262 280 284 301 282 277 282
120 123 119 121 118 123 119 121 119 73 75 62 63 79 123 146 131 124 119 120 144 138 189 195 196 202 218 194 192 202 192 202 148 65 52 23 316 316 332 301 302 299 293
118 108 117 120 136 134 128 130 133 133 138 100 44 86 80 98 116 129 131 110 113 248 208 210 209 229 145 119 95 97 90 79 95 129 114 302 324 325 302 319 314 285 295
120 120 155 153 156 139 142 141 132 154 151 121 118 70 81 112 121 137 142 131 167 218 202 24 102 98 93 94 96 96 106 116 146 38 334 346 315 275 325 319 307 305 314
95 98 121 127 139 141 141 153 151 162 150 138 157 156 156 141 161 176 182 178 182 175 126 131 122 112 116 118 114 111 74 20 319 284 256 267 298 12 331 313 307 318 304
103 89 87 84 89 111 144 129 166 162 161 165 167 167 175 171 175 178 181 195 193 169 147 124 117 116 129 135 133 130 117 285 283 149 123 68 35 356 326 306 316 312 300
61 79 85 107 175 151 176 146 165 169 159 160 146 166 173 186 180 184 190 191 195 158 149 138 130 118 120 120 115 107 115 37 84 105 80 53 23 344 312 317 321 309 313
81 77 103 102 91 44 65 94 128 143 142 133 151 150 178 197 210 198 183 176 170 163 148 150 139 133 143 140 136 134 124 127 129 110 84 44 4 336 312 319 314 313 325
113 122 108 122 130 135 115 106 123 125 133 142 149 160 175 198 189 192 165 153 148 157 164 162 155 145 136 139 129 108 119 125 119 106 106 72 321 322 325 316 312 322 317
249 104 120 163 132 130 137 179 176 158 150 148 155 162 177 182 181 184 172 167 167 175 186 174 154 153 149 142 138 128 127 113 117 113 87 42 301 316 304 282 322 318 321
163 146 155 152 127 153 180 139 165 154 161 160 161 172 174 183 190 170 172 168 176 174 174 175 174 161 149 144 145 148 143 142 132 128 124 341 307 300 298 301 327 321 319